This is the latest recevied weather packets stored in our database for station/object KV4OP. If no packets are shown the sender has not sent any weather packets the latest 10 day(s).
| Time | Temp. | Humidity | Pressure | Rain* | Wind** | Luminosity | Snow |
|---|---|---|---|---|---|---|---|
| 1777467334 | 22.22° C | 88% | 1018.6 hPa | 0 mm | - | - | - |
| 1777467031 | 22.22° C | 89% | 1018.4 hPa | 0 mm | - | - | - |
| 1777466730 | 21.67° C | 89% | 1018.1 hPa | 0 mm | - | - | - |
| 1777466430 | 21.67° C | 90% | 1018.2 hPa | 0 mm | - | - | - |
| 1777466129 | 21.11° C | 90% | 1018.3 hPa | 0 mm | - | - | - |
| 1777465831 | 21.11° C | 90% | 1018.2 hPa | 0 mm | - | - | - |
| 1777465527 | 20.56° C | 90% | 1018 hPa | 0 mm | - | - | - |
| 1777465226 | 20.56° C | 90% | 1018 hPa | 0 mm | - | - | - |
| 1777464925 | 20° C | 90% | 1017.9 hPa | 0 mm | - | - | - |
| 1777464623 | 20° C | 90% | 1017.8 hPa | 0 mm | - | - | - |
| 1777464323 | 20° C | 90% | 1017.8 hPa | 0 mm | - | - | - |
| 1777464026 | 20° C | 91% | 1017.8 hPa | 0 mm | - | - | - |
| 1777463723 | 19.44° C | 91% | 1018.1 hPa | 0 mm | - | - | - |
| 1777463421 | 19.44° C | 91% | 1017.6 hPa | 0 mm | - | - | - |
| 1777463121 | 18.89° C | 91% | 1017.5 hPa | 0 mm | - | - | - |
| 1777462821 | 18.33° C | 91% | 1017.5 hPa | 0 mm | - | - | - |
| 1777462521 | 18.33° C | 91% | 1017.5 hPa | 0 mm | - | - | - |
| 1777462231 | 17.78° C | 90% | 1017.5 hPa | 0 mm | - | - | - |
| 1777461921 | 17.78° C | 91% | 1017.4 hPa | 0 mm | - | - | - |
| 1777461621 | 17.78° C | 90% | 1017.1 hPa | 0 mm | - | - | - |
| 1777461344 | 17.22° C | 90% | 1017.1 hPa | 0 mm | - | - | - |
| 1777461020 | 17.78° C | 91% | 1017.1 hPa | 0 mm | - | - | - |
| 1777460720 | 17.78° C | 90% | 1017.1 hPa | 0 mm | - | - | - |
| 1777460436 | 17.22° C | 90% | 1017.1 hPa | 0 mm | - | - | - |
| 1777460120 | 17.22° C | 90% | 1016.9 hPa | 0 mm | - | - | - |
* Rain latest hour (hover to see other rain measurements)
** Current wind speed in m/s (hover to see current wind gust speed)